Location: Unspecified
(0.0000°N, 0.0000°E)
Time: 21:48:55
(UTC+00:00)

Explorer 11/Cluster Stage 4 - All Passes

Search period start: 24 November 2017 00:00
Search period end: 04 December 2017 00:00
Orbit: 467 x 1262 km, 28.8° (Epoch: 24 November)

Date Brightness Start Highest point End Pass type
(mag) Time Alt. Az. Time Alt. Az. Time Alt. Az.
24 Nov - 01:24:58 10° W 01:32:47 45° NNW 01:40:06 10° NE night (unlit)
24 Nov - 03:18:42 10° NW 03:22:32 14° NNW 03:26:09 10° N visible
24 Nov - 10:41:33 10° NNW 10:44:12 18° NNE 10:46:44 10° ENE daylight
24 Nov - 12:28:55 10° WNW 12:32:27 51° SSW 12:36:04 10° SE daylight
24 Nov - 21:37:20 10° SSW 21:43:11 25° SSE 21:49:31 10° E visible
24 Nov - 23:24:48 10° SW 23:32:47 74° SSE 23:41:02 10° ENE night (unlit)
25 Nov - 01:14:51 10° W 01:22:24 39° NNW 01:29:36 10° NE night (unlit)
25 Nov - 03:09:17 10° NW 03:12:21 12° NNW 03:15:18 10° N visible
25 Nov - 10:30:54 10° NNW 10:34:11 24° NNE 10:37:12 10° E daylight
25 Nov - 12:18:59 10° W 12:22:23 36° SSW 12:25:48 10° SE daylight
25 Nov - 21:26:49 10° SSW 21:32:52 28° SSE 21:39:33 10° E visible
25 Nov - 23:14:28 10° WSW 23:22:20 86° SSE 23:30:40 10° ENE night (unlit)
26 Nov - 01:04:48 10° W 01:12:01 33° NNW 01:19:04 10° NNE night (unlit)
26 Nov - 03:00:12 10° NW 03:02:12 11° NNW 03:04:09 10° N visible
26 Nov - 10:20:21 10° NW 10:24:08 32° NNE 10:27:30 10° E daylight
26 Nov - 12:09:07 10° W 12:12:19 27° SSW 12:15:27 10° SSE daylight
26 Nov - 21:16:22 10° SSW 21:22:31 32° SSE 21:29:28 10° E visible
26 Nov - 23:04:12 10° WSW 23:11:54 83° NNW 23:20:15 10° ENE night (unlit)
27 Nov - 00:54:51 10° W 01:01:40 29° NNW 01:08:28 10° NNE night (unlit)
27 Nov - 10:09:53 10° NW 10:14:05 45° NNE 10:17:43 10° ESE daylight
27 Nov - 11:59:21 10° W 12:02:15 20° SSW 12:05:02 10° SSE daylight
27 Nov - 21:05:57 10° SW 21:12:09 37° SSE 21:19:19 10° E visible
27 Nov - 22:54:00 10° WSW 23:01:29 71° NNW 23:09:46 10° NE night (unlit)
28 Nov - 00:44:58 10° WNW 00:51:21 25° NNW 00:57:47 10° NNE night (unlit)
28 Nov - 08:12:31 10° N 08:15:02 13° NNE 08:17:21 10° NE daylight
28 Nov - 09:59:29 10° NW 10:04:00 62° NNE 10:07:49 10° ESE daylight
28 Nov - 11:49:43 10° WSW 11:52:09 16° SSW 11:54:30 10° S daylight
28 Nov - 19:11:16 10° SSE 19:12:39 11° SSE 19:14:06 10° SE visible
28 Nov - 20:55:37 10° SW 21:01:48 43° SSE 21:09:06 10° E visible
28 Nov - 22:43:52 10° WSW 22:51:06 60° NNW 22:59:13 10° NE night (unlit)
29 Nov - 00:35:14 10° WNW 00:41:04 22° NNW 00:47:02 10° NNE night (unlit)
29 Nov - 08:01:21 10° NNW 08:05:01 18° NNE 08:08:14 10° ENE daylight
29 Nov - 09:49:07 10° WNW 09:53:54 85° NNE 09:57:52 10° ESE daylight
29 Nov - 11:40:18 10° WSW 11:42:04 13° SSW 11:43:45 10° S daylight
29 Nov - 19:00:11 10° S 19:02:29 12° SSE 19:04:58 10° SE visible
29 Nov - 20:45:19 10° SW 20:51:26 50° SSE 20:58:49 10° ENE visible
29 Nov - 22:33:49 10° WSW 22:40:44 51° NNW 22:48:37 10° NE night (unlit)
30 Nov - 00:25:36 10° WNW 00:30:50 19° NNW 00:36:13 10° NNE night (unlit)
30 Nov - 07:50:26 10° NNW 07:54:58 23° NNE 07:58:48 10° ENE daylight
30 Nov - 09:38:47 10° WNW 09:43:47 73° SSW 09:47:50 10° SE daylight
30 Nov - 18:49:25 10° S 18:52:18 14° SSE 18:55:27 10° ESE visible
30 Nov - 20:35:05 10° SW 20:41:05 59° SSE 20:48:28 10° ENE visible
30 Nov - 22:23:51 10° W 22:30:25 43° NNW 22:37:57 10° NE night (unlit)
01 Dec - 00:16:08 10° NW 00:20:38 16° NNW 00:25:16 10° NNE night (unlit)
01 Dec - 05:54:30 10° NNE 05:54:56 10° NNE 05:55:22 10° NNE daylight
01 Dec - 07:39:36 10° NW 07:44:52 29° NNE 07:49:13 10° E daylight
01 Dec - 09:28:30 10° WNW 09:33:36 56° SSW 09:37:46 10° SE daylight
01 Dec - 18:38:50 10° S 18:42:06 16° SSE 18:45:45 10° ESE visible
01 Dec - 20:24:54 10° SW 20:30:45 71° SSE 20:38:03 10° ENE visible
01 Dec - 22:13:57 10° W 22:20:07 36° NNW 22:27:14 10° NE night (unlit)
02 Dec - 00:06:52 10° NW 00:10:28 14° NNW 00:14:12 10° N night (unlit)
02 Dec - 05:41:55 10° N 05:44:53 13° NNE 05:47:39 10° NE daylight
02 Dec - 07:28:52 10° NW 07:34:45 37° NNE 07:39:30 10° E daylight
02 Dec - 09:18:16 10° WNW 09:23:25 44° SSW 09:27:37 10° SE daylight
02 Dec - 18:28:21 10° SSW 18:31:52 19° SSE 18:35:55 10° ESE visible
02 Dec - 20:14:47 10° WSW 20:20:27 85° SSE 20:27:36 10° ENE visible
02 Dec - 22:04:10 10° W 22:09:52 30° NNW 22:16:26 10° NNE night (unlit)
02 Dec - 23:58:00 10° NW 00:00:21 11° NNW 00:02:47 10° N night (unlit)
03 Dec - 05:30:36 10° NNW 05:34:48 16° NNE 05:38:38 10° NE daylight
03 Dec - 07:18:11 10° NW 07:24:34 48° NNE 07:29:41 10° ESE daylight
03 Dec - 09:08:04 10° W 09:13:13 36° SSW 09:17:25 10° SE daylight
03 Dec - 18:17:57 10° SSW 18:21:40 22° SSE 18:26:00 10° E visible
03 Dec - 20:04:43 10° WSW 20:10:11 80° NNW 20:17:05 10° NE visible
03 Dec - 21:54:30 10° WNW 21:59:40 24° NNW 22:05:35 10° NNE night (unlit)
